,,,PA_Meas_PMT16A,,PR_Meas_QMR101_102,,RH_Meas_QMH101,,SR_Meas_QMS101,,TA_Meas_QMH101,,GenWind,,GenWind,
date,time,status,PA,status,PR,status,RH,status,SR,status,TA,status,DirAvg,status,SpdAvg,
2009-11-21, 00:00:05,VALID,1002.37,VALID,0,VALID,84.4517,VALID,0,VALID,26.2349,VALID,337,VALID,0.00195313,
2009-11-21, 00:01:05,VALID,1002.38,VALID,0,VALID,84.322,VALID,0,VALID,26.2349,VALID,1,VALID,0.671484,
2009-11-21, 00:02:05,VALID,1002.34,VALID,0,VALID,83.9711,VALID,0,VALID,26.2739,VALID,351,VALID,0.648828,
2009-11-21, 00:03:05,VALID,1002.34,VALID,0,VALID,83.8567,VALID,0,VALID,26.3128,VALID,5,VALID,0.375391,
2009-11-21, 00:04:05,VALID,1002.35,VALID,0,VALID,83.8719,VALID,0,VALID,26.3128,VALID,360,VALID,0.431641,
2009-11-21, 00:05:05,VALID,1002.34,VALID,0,VALID,83.9253,VALID,0,VALID,26.3323,VALID,360,VALID,0.166797,
2009-11-21, 00:06:05,VALID,1002.33,VALID,0,VALID,83.994,VALID,0,VALID,26.3128,VALID,360,VALID,0.0457031,
2009-11-21, 00:07:05,VALID,1002.31,VALID,0,VALID,83.9635,VALID,0,VALID,26.2933,VALID,290,VALID,0.792188,
2009-11-21, 00:08:05,VALID,1002.3,VALID,0,VALID,83.7651,VALID,0,VALID,26.3128,VALID,356,VALID,0.307813,
2009-11-21, 00:09:05,VALID,1002.29,VALID,0,VALID,83.7956,VALID,0,VALID,26.3108,VALID,360,VALID,0.33125,
2009-11-21, 00:10:05,VALID,1002.26,VALID,0,VALID,83.7956,VALID,0,VALID,26.3128,VALID,360,VALID,0.0414063,
2009-11-21, 00:11:05,VALID,1002.24,VALID,0,VALID,83.9558,VALID,0,VALID,26.3128,VALID,360,VALID,0,
2009-11-21, 00:12:05,VALID,1002.24,VALID,0,VALID,83.849,VALID,0,VALID,26.3128,VALID,360,VALID,0,
2009-11-21, 00:13:05,VALID,1002.24,VALID,0,VALID,83.9177,VALID,0,VALID,26.2719,VALID,345,VALID,0.221484,
2009-11-21, 00:14:05,VALID,1002.26,VALID,0,VALID,83.9558,VALID,0,VALID,26.2933,VALID,281,VALID,0.272656,
2009-11-21, 00:15:05,VALID,1002.23,VALID,0,VALID,84.0245,VALID,0,VALID,26.2739,VALID,288,VALID,0.223438,
2009-11-21, 00:16:05,VALID,1002.18,VALID,0,VALID,84.1084,VALID,0,VALID,26.2739,VALID,288,VALID,0.0445312,
2009-11-21, 00:17:05,VALID,1002.19,VALID,0,VALID,84.1237,VALID,0,VALID,26.2739,VALID,333,VALID,0.170703,
2009-11-21, 00:18:05,VALID,1002.18,VALID,0,VALID,84.0474,VALID,0,VALID,26.2739,VALID,333,VALID,0.009375,
2009-11-21, 00:19:05,VALID,1002.18,VALID,0,VALID,84.1542,VALID,0,VALID,26.2544,VALID,333,VALID,0.172656,
2009-11-21, 00:20:05,VALID,1002.18,VALID,0,VALID,84.1847,VALID,0,VALID,26.2544,VALID,357,VALID,0.644141,
2009-11-21, 00:21:05,VALID,1002.19,VALID,0,VALID,84.1542,VALID,0,VALID,26.2349,VALID,355,VALID,0.539453,
2009-11-21, 00:22:05,VALID,1002.15,VALID,0,VALID,84.2457,VALID,0,VALID,26.2349,VALID,326,VALID,0.0984375,
2009-11-21, 00:23:05,VALID,1002.17,VALID,0,VALID,84.3525,VALID,0,VALID,26.2369,VALID,326,VALID,0.0234375,
2009-11-21, 00:24:05,VALID,1002.16,VALID,0,VALID,84.4899,VALID,0,VALID,26.2134,VALID,328,VALID,0.312109,
2009-11-21, 00:25:05,VALID,1002.12,VALID,0,VALID,84.528,VALID,0,VALID,26.1959,VALID,328,VALID,0.0761719,
2009-11-21, 00:26:05,VALID,1002.14,VALID,0,VALID,84.5433,VALID,0,VALID,26.1765,VALID,342,VALID,0.434766,
2009-11-21, 00:27:05,VALID,1002.11,VALID,0,VALID,84.5738,VALID,0,VALID,26.1765,VALID,346,VALID,0.652344,
2009-11-21, 00:28:05,VALID,1002.09,VALID,0,VALID,84.6424,VALID,0,VALID,26.157,VALID,351,VALID,0.324219,
2009-11-21, 00:29:05,VALID,1002.13,VALID,0,VALID,84.7797,VALID,0,VALID,26.157,VALID,9,VALID,0.107813,
2009-11-21, 00:30:05,VALID,1002.11,VALID,0,VALID,84.8484,VALID,0,VALID,26.1375,VALID,9,VALID,0.203906,
2009-11-21, 00:31:05,VALID,1002.09,VALID,0,VALID,84.9857,VALID,0,VALID,26.118,VALID,9,VALID,0.0976563,
2009-11-21, 00:32:05,VALID,1002.05,VALID,0,VALID,84.9094,VALID,0,VALID,26.0985,VALID,3,VALID,0.455078,
2009-11-21, 00:33:05,VALID,1002.08,VALID,0,VALID,84.8866,VALID,0.100563,VALID,26.1375,VALID,351,VALID,0.387109,
2009-11-21, 00:34:05,VALID,1002.09,VALID,0,VALID,84.7569,VALID,0,VALID,26.1375,VALID,351,VALID,0.300781,
2009-11-21, 00:35:05,VALID,1002.09,VALID,0,VALID,84.856,VALID,0,VALID,26.157,VALID,351,VALID,0.0902344,
2009-11-21, 00:36:05,VALID,1002.08,VALID,0,VALID,84.8942,VALID,0,VALID,26.1375,VALID,351,VALID,0.0121094,
2009-11-21, 00:37:05,VALID,1002.03,VALID,0,VALID,84.8713,VALID,0,VALID,26.1375,VALID,351,VALID,0.219922,
2009-11-21, 00:38:05,VALID,1002.01,VALID,0,VALID,84.9857,VALID,0,VALID,26.1375,VALID,351,VALID,0.0492188,
2009-11-21, 00:39:05,VALID,1001.98,VALID,0,VALID,84.9781,VALID,0,VALID,26.118,VALID,351,VALID,0.171484,
2009-11-21, 00:40:05,VALID,1001.98,VALID,0,VALID,84.8026,VALID,0,VALID,26.1375,VALID,351,VALID,0.234766,
2009-11-21, 00:41:05,VALID,1001.97,VALID,0,VALID,84.8637,VALID,0,VALID,26.118,VALID,351,VALID,0.223828,
2009-11-21, 00:42:05,VALID,1001.95,VALID,0,VALID,84.8942,VALID,0,VALID,26.118,VALID,351,VALID,0.250781,
2009-11-21, 00:43:05,VALID,1001.95,VALID,0,VALID,84.8408,VALID,0,VALID,26.1375,VALID,351,VALID,0.420703,
2009-11-21, 00:44:05,VALID,1001.94,VALID,0,VALID,84.6806,VALID,0,VALID,26.1355,VALID,348,VALID,0.521094,
2009-11-21, 00:45:05,VALID,1001.94,VALID,0,VALID,84.7035,VALID,0,VALID,26.155,VALID,344,VALID,0.0445312,
2009-11-21, 00:46:05,VALID,1001.91,VALID,0,VALID,84.6882,VALID,0,VALID,26.1745,VALID,344,VALID,0.106641,
2009-11-21, 00:47:05,VALID,1001.89,VALID,0,VALID,84.7874,VALID,0,VALID,26.1765,VALID,344,VALID,0.190625,
2009-11-21, 00:48:05,VALID,1001.88,VALID,0,VALID,84.9171,VALID,0,VALID,26.157,VALID,344,VALID,0.187891,
2009-11-21, 00:49:05,VALID,1001.87,VALID,0,VALID,84.8484,VALID,0,VALID,26.157,VALID,345,VALID,0.709375,
2009-11-21, 00:50:05,VALID,1001.87,VALID,0,VALID,85.0391,VALID,0.100563,VALID,26.157,VALID,347,VALID,0.310547,
2009-11-21, 00:51:05,VALID,1001.85,VALID,0,VALID,84.9018,VALID,0,VALID,26.157,VALID,350,VALID,0.730859,
2009-11-21, 00:52:05,VALID,1001.83,VALID,0,VALID,84.7797,VALID,0,VALID,26.157,VALID,350,VALID,0.614062,
2009-11-21, 00:53:05,VALID,1001.83,VALID,0,VALID,84.6424,VALID,0,VALID,26.2154,VALID,299,VALID,0.485938,
2009-11-21, 00:54:05,VALID,1001.82,VALID,0,VALID,84.6195,VALID,0,VALID,26.2564,VALID,292,VALID,0.145313,
2009-11-21, 00:55:05,VALID,1001.81,VALID,0,VALID,84.6195,VALID,0,VALID,26.2544,VALID,323,VALID,0.350391,
2009-11-21, 00:56:05,VALID,1001.8,VALID,0,VALID,84.5051,VALID,0,VALID,26.2134,VALID,342,VALID,0.999219,
2009-11-21, 00:57:05,VALID,1001.76,VALID,0,VALID,84.5127,VALID,0,VALID,26.2544,VALID,352,VALID,0.589844,
2009-11-21, 00:58:05,VALID,1001.75,VALID,0,VALID,84.4899,VALID,0,VALID,26.2759,VALID,352,VALID,0.803125,
2009-11-21, 00:59:05,VALID,1001.75,VALID,0,VALID,84.383,VALID,0,VALID,26.2739,VALID,340,VALID,0.692969,
2009-11-21, 01:00:05,VALID,1001.74,VALID,0,VALID,84.4136,VALID,0,VALID,26.2739,VALID,352,VALID,0.213281,
2009-11-21, 01:01:05,VALID,1001.73,VALID,0,VALID,84.5967,VALID,0,VALID,26.2953,VALID,297,VALID,0.197656,
2009-11-21, 01:02:05,VALID,1001.72,VALID,0,VALID,84.6119,VALID,0,VALID,26.2349,VALID,286,VALID,0.321875,
2009-11-21, 01:03:05,VALID,1001.7,VALID,0,VALID,84.6272,VALID,0,VALID,26.2544,VALID,320,VALID,0.0785156,
2009-11-21, 01:04:05,VALID,1001.69,VALID,0,VALID,84.8026,VALID,0,VALID,26.2349,VALID,319,VALID,0.211719,
2009-11-21, 01:05:05,VALID,1001.65,VALID,0,VALID,84.795,VALID,0,VALID,26.2154,VALID,347,VALID,0.550781,
2009-11-21, 01:06:05,VALID,1001.62,VALID,0,VALID,84.8484,VALID,0,VALID,26.1959,VALID,345,VALID,0.822656,
2009-11-21, 01:07:05,VALID,1001.6,VALID,0,VALID,84.8789,VALID,0,VALID,26.1959,VALID,348,VALID,0.611719,
2009-11-21, 01:08:05,VALID,1001.59,VALID,0,VALID,85.0468,VALID,0,VALID,26.1959,VALID,321,VALID,0.255469,
2009-11-21, 01:09:05,VALID,1001.58,VALID,0,VALID,85.062,VALID,0,VALID,26.1979,VALID,345,VALID,0.312109,
2009-11-21, 01:10:05,VALID,1001.61,VALID,0,VALID,85.1459,VALID,0,VALID,26.157,VALID,342,VALID,0.255859,
2009-11-21, 01:11:05,VALID,1001.59,VALID,0,VALID,84.94,VALID,0,VALID,26.1765,VALID,359,VALID,0.846875,
2009-11-21, 01:12:05,VALID,1001.55,VALID,0,VALID,84.8103,VALID,0,VALID,26.1959,VALID,355,VALID,0.83125,
2009-11-21, 01:13:05,VALID,1001.55,VALID,0,VALID,84.7111,VALID,0,VALID,26.2154,VALID,345,VALID,0.690625,
2009-11-21, 01:14:05,VALID,1001.53,VALID,0,VALID,84.6882,VALID,0,VALID,26.2349,VALID,348,VALID,0.95,
2009-11-21, 01:15:05,VALID,1001.53,VALID,0,VALID,84.5356,VALID,0,VALID,26.2134,VALID,349,VALID,1.07578,
2009-11-21, 01:16:05,VALID,1001.51,VALID,0,VALID,84.3525,VALID,0,VALID,26.2544,VALID,347,VALID,1.53047,
2009-11-21, 01:17:05,VALID,1001.51,VALID,0,VALID,84.2915,VALID,0,VALID,26.2933,VALID,337,VALID,1.15352,
2009-11-21, 01:18:05,VALID,1001.49,VALID,0,VALID,84.1771,VALID,0,VALID,26.3128,VALID,357,VALID,0.833594,
2009-11-21, 01:19:05,VALID,1001.51,VALID,0,VALID,84.1618,VALID,0,VALID,26.3128,VALID,344,VALID,0.951172,
2009-11-21, 01:20:05,VALID,1001.49,VALID,0,VALID,84.1466,VALID,0,VALID,26.3128,VALID,1,VALID,0.759766,
2009-11-21, 01:21:05,VALID,1001.46,VALID,0,VALID,84.2457,VALID,0,VALID,26.3128,VALID,2,VALID,0.480469,
2009-11-21, 01:22:05,VALID,1001.45,VALID,0,VALID,84.2228,VALID,0,VALID,26.3128,VALID,349,VALID,0.613672,
2009-11-21, 01:23:05,VALID,1001.43,VALID,0,VALID,84.1389,VALID,0,VALID,26.3343,VALID,337,VALID,0.905078,
2009-11-21, 01:24:05,VALID,1001.43,VALID,0,VALID,84.0397,VALID,0,VALID,26.3323,VALID,322,VALID,1.00391,
2009-11-21, 01:25:05,VALID,1001.43,VALID,0,VALID,84.0169,VALID,0,VALID,26.3538,VALID,3,VALID,0.735156,
2009-11-21, 01:26:05,VALID,1001.39,VALID,0,VALID,84.0855,VALID,0,VALID,26.3518,VALID,340,VALID,0.377344,
2009-11-21, 01:27:05,VALID,1001.37,VALID,0,VALID,84.055,VALID,0,VALID,26.3518,VALID,353,VALID,0.932813,
2009-11-21, 01:28:05,VALID,1001.33,VALID,0,VALID,84.0474,VALID,0,VALID,26.3538,VALID,350,VALID,0.709766,
2009-11-21, 01:29:05,VALID,1001.33,VALID,0,VALID,84.0016,VALID,0,VALID,26.3323,VALID,347,VALID,0.810547,
2009-11-21, 01:30:05,VALID,1001.31,VALID,0,VALID,83.9711,VALID,0,VALID,26.3323,VALID,348,VALID,0.929688,
2009-11-21, 01:31:05,VALID,1001.28,VALID,0,VALID,83.9253,VALID,0,VALID,26.3323,VALID,358,VALID,0.895312,
2009-11-21, 01:32:05,VALID,1001.29,VALID,0,VALID,84.0397,VALID,0,VALID,26.3323,VALID,356,VALID,0.475391,
2009-11-21, 01:33:05,VALID,1001.25,VALID,0,VALID,84.0703,VALID,0,VALID,26.2933,VALID,348,VALID,0.816016,
2009-11-21, 01:34:05,VALID,1001.26,VALID,0,VALID,84.0855,VALID,0,VALID,26.2933,VALID,347,VALID,1.0207,
2009-11-21, 01:35:05,VALID,1001.25,VALID,0,VALID,84.1923,VALID,0,VALID,26.2933,VALID,349,VALID,0.655078,
2009-11-21, 01:36:05,VALID,1001.23,VALID,0,VALID,84.2839,VALID,0,VALID,26.2739,VALID,340,VALID,0.570703,
2009-11-21, 01:37:05,VALID,1001.23,VALID,0,VALID,84.4288,VALID,0,VALID,26.2349,VALID,335,VALID,0.639453,
2009-11-21, 01:38:05,VALID,1001.2,VALID,0,VALID,84.5356,VALID,0,VALID,26.1959,VALID,342,VALID,0.864453,
2009-11-21, 01:39:05,VALID,1001.19,VALID,0,VALID,84.6577,VALID,0,VALID,26.1959,VALID,3,VALID,0.720312,
2009-11-21, 01:40:05,VALID,1001.19,VALID,0,VALID,84.7492,VALID,0,VALID,26.1959,VALID,360,VALID,0.223828,
2009-11-21, 01:41:05,VALID,1001.19,VALID,0,VALID,84.7035,VALID,0,VALID,26.1765,VALID,340,VALID,0.525,
2009-11-21, 01:42:05,VALID,1001.19,VALID,0,VALID,84.8484,VALID,0,VALID,26.1355,VALID,14,VALID,0.3625,
2009-11-21, 01:43:05,VALID,1001.17,VALID,0,VALID,84.9171,VALID,0,VALID,26.1375,VALID,14,VALID,0.00195313,
2009-11-21, 01:44:05,VALID,1001.16,VALID,0,VALID,84.9476,VALID,0,VALID,26.0966,VALID,337,VALID,0.669141,
2009-11-21, 01:45:05,VALID,1001.15,VALID,0,VALID,84.94,VALID,0,VALID,26.118,VALID,353,VALID,0.344531,
2009-11-21, 01:46:05,VALID,1001.11,VALID,0,VALID,84.9247,VALID,0,VALID,26.118,VALID,3,VALID,0.625391,
2009-11-21, 01:47:05,VALID,1001.12,VALID,0,VALID,84.7797,VALID,0,VALID,26.1375,VALID,359,VALID,0.764063,
2009-11-21, 01:48:05,VALID,1001.1,VALID,0,VALID,84.795,VALID,0,VALID,26.159,VALID,261,VALID,0.819141,
2009-11-21, 01:49:05,VALID,1001.04,VALID,0,VALID,84.8103,VALID,0,VALID,26.1375,VALID,336,VALID,0.642578,
2009-11-21, 01:50:05,VALID,1001.05,VALID,0,VALID,84.8179,VALID,0,VALID,26.118,VALID,341,VALID,0.754687,
2009-11-21, 01:51:04,VALID,1001.05,VALID,0,VALID,84.8942,VALID,0,VALID,26.118,VALID,354,VALID,0.816016,
2009-11-21, 01:52:04,VALID,1001.04,VALID,0,VALID,85.0162,VALID,0,VALID,26.0985,VALID,331,VALID,0.749219,
2009-11-21, 01:53:04,VALID,1001.04,VALID,0,VALID,85.0468,VALID,0,VALID,26.0791,VALID,338,VALID,0.8125,
2009-11-21, 01:54:04,VALID,1001.02,VALID,0,VALID,85.2299,VALID,0,VALID,26.0596,VALID,342,VALID,0.623438,
2009-11-21, 01:55:04,VALID,1000.99,VALID,0,VALID,85.2375,VALID,0,VALID,26.0401,VALID,337,VALID,1.19766,
2009-11-21, 01:56:04,VALID,1000.98,VALID,0,VALID,85.3214,VALID,0,VALID,26.0206,VALID,337,VALID,0.332422,
2009-11-21, 01:57:04,VALID,1000.97,VALID,0,VALID,85.3138,VALID,0,VALID,26.0421,VALID,304,VALID,0.734375,
2009-11-21, 01:58:04,VALID,1000.96,VALID,0,VALID,85.3367,VALID,0,VALID,26.0206,VALID,345,VALID,0.677344,
2009-11-21, 01:59:04,VALID,1000.95,VALID,0,VALID,85.3061,VALID,0,VALID,26.0421,VALID,351,VALID,0.866797,
2009-11-21, 02:00:04,VALID,1000.92,VALID,0,VALID,85.3443,VALID,0,VALID,26.0012,VALID,353,VALID,0.666016,
2009-11-21, 02:01:04,VALID,1000.89,VALID,0,VALID,85.3901,VALID,0,VALID,26.0206,VALID,352,VALID,0.717188,
2009-11-21, 02:02:04,VALID,1000.9,VALID,0,VALID,85.4282,VALID,0,VALID,25.9817,VALID,336,VALID,0.876953,
2009-11-21, 02:03:04,VALID,1000.88,VALID,0,VALID,85.5045,VALID,0,VALID,25.9817,VALID,342,VALID,0.764844,
2009-11-21, 02:04:04,VALID,1000.88,VALID,0,VALID,85.6189,VALID,0,VALID,25.9622,VALID,348,VALID,0.344922,
2009-11-21, 02:05:04,VALID,1000.85,VALID,0,VALID,85.6494,VALID,0,VALID,25.9622,VALID,352,VALID,0.799609,
2009-11-21, 02:06:04,VALID,1000.88,VALID,0,VALID,85.5884,VALID,0,VALID,25.9817,VALID,351,VALID,0.76875,
2009-11-21, 02:07:04,VALID,1000.83,VALID,0,VALID,85.5579,VALID,0,VALID,25.9817,VALID,332,VALID,0.656641,
2009-11-21, 02:08:04,VALID,1000.82,VALID,0,VALID,85.4587,VALID,0,VALID,26.0012,VALID,341,VALID,1.12305,
2009-11-21, 02:09:04,VALID,1000.85,VALID,0,VALID,85.4892,VALID,0,VALID,26.0012,VALID,352,VALID,0.739453,
2009-11-21, 02:10:04,VALID,1000.84,VALID,0,VALID,85.5045,VALID,0,VALID,26.0012,VALID,351,VALID,0.680078,
2009-11-21, 02:11:04,VALID,1000.83,VALID,0,VALID,85.6113,VALID,0,VALID,25.9797,VALID,342,VALID,0.385156,
2009-11-21, 02:12:04,VALID,1000.8,VALID,0,VALID,85.5884,VALID,0,VALID,25.9797,VALID,351,VALID,0.430859,
2009-11-21, 02:13:04,VALID,1000.78,VALID,0,VALID,85.6189,VALID,0,VALID,25.9602,VALID,4,VALID,0.529297,
2009-11-21, 02:14:04,VALID,1000.8,VALID,0,VALID,85.6266,VALID,0,VALID,26.0012,VALID,359,VALID,0.798828,
2009-11-21, 02:15:04,VALID,1000.75,VALID,0,VALID,85.6113,VALID,0,VALID,26.0012,VALID,345,VALID,0.517969,
2009-11-21, 02:16:04,VALID,1000.72,VALID,0,VALID,85.7028,VALID,0,VALID,26.0012,VALID,335,VALID,0.649219,
2009-11-21, 02:17:04,VALID,1000.72,VALID,0,VALID,85.68,VALID,0,VALID,26.0012,VALID,348,VALID,0.606641,
2009-11-21, 02:18:04,VALID,1000.68,VALID,0,VALID,85.7181,VALID,0,VALID,25.9817,VALID,338,VALID,0.571094,
2009-11-21, 02:19:04,VALID,1000.71,VALID,0,VALID,85.7715,VALID,0,VALID,25.9622,VALID,350,VALID,0.733594,
2009-11-21, 02:20:04,VALID,1000.67,VALID,0,VALID,85.8478,VALID,0,VALID,25.9622,VALID,3,VALID,0.333203,
2009-11-21, 02:21:04,VALID,1000.68,VALID,0,VALID,85.8936,VALID,0,VALID,25.9408,VALID,353,VALID,0.875,
2009-11-21, 02:22:04,VALID,1000.65,VALID,0,VALID,85.8707,VALID,0,VALID,25.9622,VALID,342,VALID,0.268359,
2009-11-21, 02:23:04,VALID,1000.66,VALID,0,VALID,85.8783,VALID,0,VALID,25.9408,VALID,352,VALID,0.321875,
2009-11-21, 02:24:04,VALID,1000.67,VALID,0,VALID,85.9546,VALID,0,VALID,25.9622,VALID,347,VALID,0.499219,
2009-11-21, 02:25:04,VALID,1000.68,VALID,0,VALID,86.0004,VALID,0,VALID,25.9622,VALID,350,VALID,0.590625,
2009-11-21, 02:26:04,VALID,1000.65,VALID,0,VALID,86.008,VALID,0,VALID,25.9232,VALID,313,VALID,0.660547,
2009-11-21, 02:27:04,VALID,1000.68,VALID,0,VALID,86.0461,VALID,0,VALID,25.9213,VALID,347,VALID,0.360938,
2009-11-21, 02:28:04,VALID,1000.68,VALID,0,VALID,86.0995,VALID,0,VALID,25.9213,VALID,346,VALID,0.360547,
2009-11-21, 02:29:04,VALID,1000.66,VALID,0,VALID,86.1911,VALID,0,VALID,25.9232,VALID,346,VALID,0.235156,
2009-11-21, 02:30:04,VALID,1000.64,VALID,0,VALID,86.2292,VALID,0,VALID,25.9038,VALID,343,VALID,0.615234,
2009-11-21, 02:31:04,VALID,1000.63,VALID,0,VALID,86.2521,VALID,0,VALID,25.9038,VALID,342,VALID,0.14375,
2009-11-21, 02:32:04,VALID,1000.59,VALID,0,VALID,86.3132,VALID,0,VALID,25.9252,VALID,344,VALID,0.469531,
2009-11-21, 02:33:04,VALID,1000.59,VALID,0,VALID,86.2903,VALID,0.100563,VALID,25.8843,VALID,346,VALID,0.678906,
2009-11-21, 02:34:04,VALID,1000.61,VALID,0,VALID,86.4352,VALID,0,VALID,25.9038,VALID,343,VALID,0.129688,
2009-11-21, 02:35:04,VALID,1000.63,VALID,0,VALID,86.4734,VALID,0,VALID,25.8843,VALID,347,VALID,0.48125,
2009-11-21, 02:36:04,VALID,1000.63,VALID,0,VALID,86.4734,VALID,0,VALID,25.8843,VALID,322,VALID,0.382813,
2009-11-21, 02:37:04,VALID,1000.63,VALID,0,VALID,86.5191,VALID,0,VALID,25.8823,VALID,343,VALID,0.458203,
2009-11-21, 02:38:04,VALID,1000.61,VALID,0,VALID,86.4962,VALID,0.100563,VALID,25.8823,VALID,343,VALID,0.182031,
2009-11-21, 02:39:04,VALID,1000.59,VALID,0,VALID,86.5649,VALID,0,VALID,25.8629,VALID,327,VALID,0.4875,
2009-11-21, 02:40:04,VALID,1000.62,VALID,0,VALID,86.5573,VALID,0,VALID,25.8843,VALID,354,VALID,0.396094,
2009-11-21, 02:41:04,VALID,1000.62,VALID,0,VALID,86.5573,VALID,0,VALID,25.8843,VALID,345,VALID,0.614844,
2009-11-21, 02:42:04,VALID,1000.64,VALID,0,VALID,86.5649,VALID,0,VALID,25.8843,VALID,348,VALID,0.642969,
2009-11-21, 02:43:04,VALID,1000.62,VALID,0,VALID,86.481,VALID,0,VALID,25.9038,VALID,331,VALID,0.369922,
2009-11-21, 02:44:04,VALID,1000.58,VALID,0,VALID,86.5115,VALID,0,VALID,25.8823,VALID,219,VALID,0.426953,
2009-11-21, 02:45:04,VALID,1000.6,VALID,0,VALID,86.5725,VALID,0,VALID,25.8843,VALID,310,VALID,0.362109,
2009-11-21, 02:46:04,VALID,1000.58,VALID,0,VALID,86.5649,VALID,0.100563,VALID,25.8629,VALID,339,VALID,0.651563,
2009-11-21, 02:47:04,VALID,1000.58,VALID,0,VALID,86.5573,VALID,0,VALID,25.8629,VALID,349,VALID,0.680859,
2009-11-21, 02:48:04,VALID,1000.62,VALID,0,VALID,86.5725,VALID,0,VALID,25.8629,VALID,323,VALID,0.675781,
2009-11-21, 02:49:04,VALID,1000.58,VALID,0,VALID,86.6488,VALID,0,VALID,25.8843,VALID,331,VALID,0.255078,
2009-11-21, 02:50:04,VALID,1000.62,VALID,0,VALID,86.6259,VALID,0,VALID,25.8648,VALID,327,VALID,0.340234,
2009-11-21, 02:51:04,VALID,1000.57,VALID,0,VALID,86.6107,VALID,0,VALID,25.8434,VALID,28,VALID,0.635547,
2009-11-21, 02:52:04,VALID,1000.59,VALID,0,VALID,86.5039,VALID,0.100563,VALID,25.8629,VALID,357,VALID,0.754687,
2009-11-21, 02:53:04,VALID,1000.56,VALID,0,VALID,86.2521,VALID,0,VALID,25.9018,VALID,1,VALID,0.538281,
2009-11-21, 02:54:04,VALID,1000.58,VALID,0,VALID,86.1224,VALID,0,VALID,25.9427,VALID,323,VALID,0.741406,
2009-11-21, 02:55:04,VALID,1000.57,VALID,0,VALID,86.0538,VALID,0,VALID,25.9427,VALID,1,VALID,0.986328,
2009-11-21, 02:56:04,VALID,1000.57,VALID,0,VALID,85.68,VALID,0,VALID,25.9408,VALID,355,VALID,1.46289,
2009-11-21, 02:57:04,VALID,1000.54,VALID,0,VALID,85.6189,VALID,0,VALID,25.9817,VALID,343,VALID,0.434766,
2009-11-21, 02:58:04,VALID,1000.56,VALID,0,VALID,85.6113,VALID,0,VALID,26.0012,VALID,348,VALID,0.377734,
2009-11-21, 02:59:04,VALID,1000.52,VALID,0,VALID,85.5579,VALID,0,VALID,26.0012,VALID,306,VALID,0.321484,
2009-11-21, 03:00:04,VALID,1000.54,VALID,0,VALID,85.4892,VALID,0,VALID,26.0012,VALID,338,VALID,0.213281,
2009-11-21, 03:01:04,VALID,1000.54,VALID,0,VALID,85.5426,VALID,0,VALID,25.9817,VALID,338,VALID,0.0625,
2009-11-21, 03:02:04,VALID,1000.53,VALID,0,VALID,85.474,VALID,0,VALID,25.9622,VALID,355,VALID,0.392188,
2009-11-21, 03:03:04,VALID,1000.54,VALID,0,VALID,85.2985,VALID,0,VALID,25.9797,VALID,353,VALID,1.06406,
2009-11-21, 03:04:04,VALID,1000.55,VALID,0,VALID,85.1993,VALID,0,VALID,25.9797,VALID,345,VALID,0.602344,
2009-11-21, 03:05:04,VALID,1000.53,VALID,0,VALID,84.9094,VALID,0,VALID,25.9992,VALID,345,VALID,0.820703,
2009-11-21, 03:06:04,VALID,1000.53,VALID,0,VALID,84.9628,VALID,0,VALID,26.0187,VALID,1,VALID,0.227344,
2009-11-21, 03:07:04,VALID,1000.54,VALID,0,VALID,85.0086,VALID,0,VALID,26.0187,VALID,19,VALID,0.285547,
2009-11-21, 03:08:04,VALID,1000.53,VALID,0,VALID,84.7416,VALID,0.100563,VALID,25.9992,VALID,359,VALID,1.09023,
2009-11-21, 03:09:04,VALID,1000.54,VALID,0,VALID,84.1923,VALID,0,VALID,26.0187,VALID,353,VALID,0.848437,
2009-11-21, 03:10:04,VALID,1000.53,VALID,0,VALID,84.0626,VALID,0.100563,VALID,26.0576,VALID,18,VALID,0.520312,
2009-11-21, 03:11:04,VALID,1000.55,VALID,0,VALID,83.7041,VALID,0.100563,VALID,26.0966,VALID,330,VALID,0.981641,
2009-11-21, 03:12:04,VALID,1000.55,VALID,0,VALID,83.2158,VALID,0.100563,VALID,26.1355,VALID,336,VALID,1.1418,
2009-11-21, 03:13:04,VALID,1000.53,VALID,0,VALID,83.2845,VALID,0.100563,VALID,26.1745,VALID,343,VALID,0.617969,
2009-11-21, 03:14:04,VALID,1000.53,VALID,0,VALID,82.9412,VALID,0,VALID,26.1959,VALID,326,VALID,0.89375,
2009-11-21, 03:15:04,VALID,1000.55,VALID,0,VALID,82.8725,VALID,0,VALID,26.2134,VALID,340,VALID,0.932422,
2009-11-21, 03:16:04,VALID,1000.54,VALID,0,VALID,83.0404,VALID,0,VALID,26.2329,VALID,323,VALID,0.407422,
2009-11-21, 03:17:04,VALID,1000.53,VALID,0,VALID,83.0709,VALID,0.100563,VALID,26.2544,VALID,1,VALID,0.61875,
2009-11-21, 03:18:04,VALID,1000.52,VALID,0,VALID,83.2616,VALID,0,VALID,26.2349,VALID,276,VALID,0.402344,
2009-11-21, 03:19:04,VALID,1000.55,VALID,0,VALID,83.5057,VALID,0,VALID,26.2349,VALID,272,VALID,0.157422,
2009-11-21, 03:20:04,VALID,1000.55,VALID,0,VALID,83.46,VALID,0,VALID,26.2154,VALID,344,VALID,0.683984,
2009-11-21, 03:21:04,VALID,1000.53,VALID,0,VALID,83.5973,VALID,0,VALID,26.2349,VALID,357,VALID,0.469922,
2009-11-21, 03:22:04,VALID,1000.54,VALID,0,VALID,83.7422,VALID,0,VALID,26.1959,VALID,346,VALID,0.895703,
2009-11-21, 03:23:04,VALID,1000.51,VALID,0,VALID,83.7346,VALID,0,VALID,26.1959,VALID,328,VALID,0.433594,
2009-11-21, 03:24:04,VALID,1000.52,VALID,0,VALID,83.7422,VALID,0,VALID,26.1745,VALID,348,VALID,0.773828,
2009-11-21, 03:25:04,VALID,1000.51,VALID,0,VALID,83.8338,VALID,0,VALID,26.1765,VALID,354,VALID,1.15664,
2009-11-21, 03:26:04,VALID,1000.53,VALID,0,VALID,83.7727,VALID,0,VALID,26.1765,VALID,337,VALID,0.926562,
2009-11-21, 03:27:04,VALID,1000.54,VALID,0,VALID,83.8948,VALID,0,VALID,26.1765,VALID,336,VALID,0.382422,
2009-11-21, 03:28:04,VALID,1000.56,VALID,0,VALID,83.4905,VALID,0,VALID,26.1745,VALID,336,VALID,0.993359,
2009-11-21, 03:29:04,VALID,1000.52,VALID,0,VALID,83.4752,VALID,0,VALID,26.2154,VALID,341,VALID,0.487109,
2009-11-21, 03:30:04,VALID,1000.53,VALID,0,VALID,83.5744,VALID,0,VALID,26.2154,VALID,352,VALID,0.470703,
2009-11-21, 03:31:04,VALID,1000.54,VALID,0,VALID,83.6125,VALID,0,VALID,26.1959,VALID,3,VALID,0.710547,
2009-11-21, 03:32:04,VALID,1000.52,VALID,0,VALID,83.6964,VALID,0,VALID,26.2154,VALID,2,VALID,0.626953,
2009-11-21, 03:33:04,VALID,1000.52,VALID,0,VALID,83.6964,VALID,0,VALID,26.194,VALID,354,VALID,0.480078,
2009-11-21, 03:34:04,VALID,1000.53,VALID,0,VALID,83.6583,VALID,0,VALID,26.1959,VALID,352,VALID,0.464453,
2009-11-21, 03:35:04,VALID,1000.52,VALID,0,VALID,83.849,VALID,0,VALID,26.1745,VALID,351,VALID,0.0871094,
2009-11-21, 03:36:04,VALID,1000.55,VALID,0,VALID,83.9024,VALID,0,VALID,26.1765,VALID,337,VALID,0.448438,
2009-11-21, 03:37:04,VALID,1000.52,VALID,0,VALID,84.0474,VALID,0,VALID,26.157,VALID,336,VALID,0.353125,
2009-11-21, 03:38:04,VALID,1000.54,VALID,0,VALID,84.1618,VALID,0,VALID,26.157,VALID,330,VALID,0.352344,
2009-11-21, 03:39:04,VALID,1000.52,VALID,0,VALID,84.1618,VALID,0,VALID,26.1375,VALID,350,VALID,0.642578,
2009-11-21, 03:40:04,VALID,1000.52,VALID,0,VALID,84.2305,VALID,0,VALID,26.116,VALID,1,VALID,0.778516,
2009-11-21, 03:41:04,VALID,1000.5,VALID,0,VALID,84.0016,VALID,0,VALID,26.159,VALID,347,VALID,0.692578,
2009-11-21, 03:42:04,VALID,1000.52,VALID,0,VALID,83.9787,VALID,0,VALID,26.157,VALID,301,VALID,0.280469,
2009-11-21, 03:43:04,VALID,1000.55,VALID,0,VALID,83.994,VALID,0,VALID,26.157,VALID,347,VALID,0.18125,
2009-11-21, 03:44:04,VALID,1000.53,VALID,0,VALID,84.1237,VALID,0,VALID,26.1375,VALID,347,VALID,0.153906,